Flag for Germany Weather past 2 weeks in Warburg, North Rhine-Westphalia, Germany

Now
63 °F

Sunny.


Feels Like: 63 °F
Forecast: 60 / 76 °F
Wind: 1 mph from North

Location: Kassel / Calden

Current Time: Aug 2, 2014 at 8:42:44 AM

Latest Report: Aug 2, 2014 at 7:50 AM


Visibility: 10 mi

Pressure: 29.80 "Hg

Humidity: 83%

Dew point: 57 °F

Location of WarburgLocation

Historic Weather in Warburg — Graph

°F

Warburg temperature yesterday

Maximum temperature yesterday: 79 °F (at 2:20 PM)
Minimum temperature yesterday: 57 °F (at 5:50 AM)
Average temperature yesterday: 72 °F

Past Weeks' High & Low Weather Summary

 TemperatureHumidityPressure
High90 °F (Jul 19, 4:50 PM)100% (Jul 21, 8:20 AM)30.15 "Hg (Jul 21, 8:20 AM)
Low57 °F (Jul 24, 6:50 AM)31% (Jul 19, 1:20 PM)29.77 "Hg (Jul 29, 3:50 PM)
Average71 °F71%29.95 "Hg
* Reported Jul 18 7:20 AM — Aug 2 7:20 AM, Warburg, Weather by CustomWeather, © 2014

Note: Actual official high and low records may vary slightly from our data, if they occured in-between our weather recording intervals... More about our weather records

Advertising

Warburg weather history for previous 24 hours

 ConditionsComfort  
Time TempWeatherWind HumidityBarometerVisibility
7:20 AM
Aug 2
61 °FSunny.1 mph83%29.80 "Hg10 mi
6:50 AM57 °FSunny.1 mph94%29.83 "Hg10 mi
6:20 AM57 °FClear.No wind88%29.83 "Hg10 mi
5:50 AM57 °FClear.1 mph88%29.80 "Hg10 mi
9:50 PM
Aug 1
68 °FSunny.3 mph73%29.86 "Hg10 mi
9:20 PM70 °FSunny.3 mph69%29.86 "Hg10 mi
8:50 PM73 °FSunny.5 mph61%29.86 "Hg10 mi
8:20 PM75 °FSunny.6 mph54%29.86 "Hg10 mi
7:50 PM77 °FSunny.5 mph51%29.86 "Hg10 mi
7:20 PM77 °FSunny.7 mph47%29.86 "Hg10 mi
6:50 PM77 °FPassing clouds.6 mph47%29.86 "HgN/A
6:20 PM79 °FPassing clouds.9 mph42%29.86 "HgN/A
5:50 PM79 °FPassing clouds.7 mph42%29.86 "HgN/A
5:20 PM79 °FPassing clouds.8 mph45%29.86 "HgN/A
4:50 PM79 °FSunny.9 mph45%29.86 "Hg10 mi
4:20 PM79 °FPassing clouds.9 mph42%29.86 "HgN/A
3:50 PM79 °FPassing clouds.9 mph42%29.89 "HgN/A
3:20 PM79 °FPassing clouds.9 mph45%29.89 "HgN/A
2:50 PM79 °FPassing clouds.10 mph42%29.89 "HgN/A
2:20 PM79 °FPassing clouds.7 mph42%29.89 "HgN/A
1:50 PM77 °FPassing clouds.7 mph51%29.89 "HgN/A
1:20 PM77 °FPassing clouds.9 mph44%29.92 "HgN/A
12:50 PM77 °FPassing clouds.10 mph51%29.92 "HgN/A
12:20 PM77 °FPassing clouds.9 mph47%29.92 "HgN/A
11:50 AM75 °FPassing clouds.8 mph50%29.92 "HgN/A
11:20 AM75 °FPassing clouds.8 mph54%29.92 "HgN/A
10:50 AM73 °FPassing clouds.7 mph57%29.92 "HgN/A
10:20 AM72 °FPassing clouds.7 mph61%29.92 "HgN/A
9:50 AM68 °FSunny.9 mph69%29.92 "Hg10 mi
9:20 AM68 °FSunny.8 mph69%29.95 "Hg10 mi
8:50 AM64 °FPassing clouds.5 mph73%29.95 "HgN/A
8:20 AM63 °FSunny.5 mph77%29.95 "Hg10 mi
Weather by CustomWeather, © 2014

See weather overviewHow to use our weather pages